Date,TemperatureHighF,TemperatureAvgF,TemperatureLowF,DewpointHighF,DewpointAvgF,DewpointLowF,HumidityHigh,HumidityAvg,HumidityLow,PressureMaxIn,PressureMinIn,WindSpeedMaxMPH,WindSpeedAvgMPH,GustSpeedMaxMPH,PrecipitationSumIn
2013-1-1,34,31,26,32,28,21,97,88,75,30.22,30.10,3,0,6,0.05
2013-1-2,29,23,17,21,17,11,93,77,53,30.34,30.21,5,0,5,0.01
2013-1-3,35,25,12,25,18,10,91,75,54,30.40,30.29,10,1,14,0.01
2013-1-4,36,32,29,26,24,21,79,70,56,30.42,30.36,13,3,20,0.02
2013-1-5,41,33,23,30,26,20,92,76,58,30.43,30.23,4,1,8,0.17
2013-1-6,39,34,28,33,28,23,84,78,74,30.42,30.09,8,2,16,0.07
2013-1-7,40,31,21,29,25,19,93,78,63,30.55,30.32,7,1,10,0.00
2013-1-8,49,35,22,35,28,20,94,78,56,30.39,30.28,5,1,11,0.00
2013-1-9,54,43,31,46,37,29,93,79,55,30.56,30.28,9,1,12,0.05
2013-1-10,46,37,27,41,33,26,97,88,71,30.58,30.17,8,1,13,0.06
2013-1-11,62,55,45,56,50,41,96,84,68,30.15,29.93,13,3,18,0.40
2013-1-12,66,61,55,62,57,51,96,89,82,30.05,29.82,8,2,12,0.02
2013-1-13,67,54,35,62,52,33,96,92,79,30.18,29.75,7,2,23,0.98
2013-1-14,35,27,24,32,23,21,91,85,79,30.53,30.19,5,1,10,0.00
2013-1-15,32,28,23,27,24,21,92,83,75,30.45,30.15,8,2,13,0.00
2013-1-16,37,33,32,30,28,27,87,81,66,30.16,30.05,5,1,10,0.00
2013-1-17,43,34,28,33,27,22,91,77,59,30.46,30.16,6,1,10,0.00
2013-1-18,39,31,18,27,21,16,92,68,46,30.60,30.30,12,1,13,0.00
2013-1-19,54,45,38,30,28,26,66,53,37,30.30,29.97,12,3,19,0.00
2013-1-21,25,20,13,17,8,-1,74,57,43,30.34,30.18,14,3,25,0.00
2013-1-22,19,14,7,3,1,-1,73,56,42,30.50,30.34,8,2,14,0.00
2013-1-23,23,19,12,13,7,2,79,59,50,30.46,30.18,7,1,9,0.00
2013-1-24,24,20,15,13,7,1,74,56,37,30.68,30.18,8,2,14,0.00
2013-1-25,27,24,20,22,16,7,87,72,52,30.52,30.13,10,3,14,0.00
2013-1-26,32,25,18,22,19,16,91,77,59,30.52,30.21,4,1,10,0.01
2013-1-27,38,29,18,36,23,15,95,79,59,30.52,30.24,8,2,12,0.26
2013-1-28,54,48,37,52,46,35,97,92,79,30.24,30.08,7,2,11,0.11
2013-1-29,64,59,53,59,55,51,93,85,78,30.09,29.60,10,3,16,0.00
2013-1-30,67,53,33,60,49,27,96,85,76,29.61,29.31,15,4,28,1.23
2013-1-31,33,28,18,27,20,11,91,73,59,30.13,29.61,18,4,24,0.00
2013-2-1,18,13,8,9,5,0,85,70,61,30.51,30.13,10,2,16,0.00
2013-2-2,32,21,12,27,17,8,91,83,75,30.43,30.08,6,2,15,0.03
2013-2-3,29,23,18,24,17,13,88,80,69,30.20,30.02,11,1,15,0.00
2013-2-4,35,27,15,33,24,12,96,87,69,30.20,29.90,6,1,13,0.02
2013-2-5,37,33,28,32,30,25,97,88,79,30.08,29.91,3,1,6,0.07
2013-2-6,37,34,28,32,29,25,91,81,73,30.33,30.08,3,1,7,0.02
2013-2-7,58,41,29,39,32,27,92,74,44,30.27,29.92,7,1,9,0.00
2013-2-8,53,38,32,45,32,25,92,80,58,30.38,29.84,14,2,14,0.09
2013-2-9,40,33,22,25,21,18,87,64,41,30.50,30.29,7,2,13,0.00
2013-2-10,56,44,28,47,32,22,90,65,42,30.29,29.84,13,3,24,0.02
2013-2-11,53,47,39,50,36,29,93,67,50,30.09,29.81,16,4,27,0.01
2013-2-12,49,39,30,30,27,24,85,64,37,30.20,29.97,7,1,11,0.00
2013-2-13,35,32,30,31,29,25,94,87,73,29.96,29.84,4,1,7,0.10
2013-2-14,52,41,33,40,34,30,92,78,53,30.06,29.88,11,2,18,0.03
2013-2-15,41,33,25,33,28,21,93,80,61,30.22,30.04,6,1,16,0.00
2013-2-16,29,24,18,23,17,13,93,76,54,30.22,30.12,10,1,13,0.00
2013-2-17,31,22,10,16,11,6,89,64,35,30.33,30.20,6,1,11,0.00
2013-2-18,59,42,23,41,26,10,85,53,42,30.29,29.80,8,3,23,0.09
2013-2-19,46,34,25,42,26,15,94,75,60,30.19,29.71,18,4,25,0.15
2013-2-20,28,24,20,17,14,12,79,66,55,30.39,30.19,9,1,17,0.00
2013-2-21,32,27,22,27,20,14,88,74,65,30.43,30.12,14,3,27,0.00
2013-2-22,44,36,30,39,33,27,97,91,82,30.14,29.95,10,2,20,0.12
2013-2-23,42,35,31,33,28,25,96,75,53,30.06,29.97,7,1,11,0.00
2013-2-24,42,33,27,28,25,22,88,73,52,30.22,30.00,5,1,13,0.00
2013-2-25,45,35,22,28,25,20,94,68,47,30.24,29.96,12,3,19,0.00
2013-2-26,47,41,35,45,37,25,97,85,60,29.96,29.41,9,2,14,0.91
2013-2-27,42,37,34,40,34,31,93,89,80,29.78,29.56,15,3,21,0.04
2013-2-28,37,35,33,34,32,29,93,88,84,30.01,29.75,8,2,15,0.01
2013-3-1,36,34,30,35,32,25,96,91,79,30.11,29.99,4,1,8,0.05
2013-3-2,30,29,27,26,23,22,85,79,72,30.15,30.09,3,1,7,0.00
2013-3-3,32,29,21,25,22,18,88,75,65,30.17,30.12,3,1,10,0.02
2013-3-4,42,31,16,27,21,14,93,69,43,30.25,30.06,10,2,13,0.00
2013-3-5,39,37,31,37,32,26,96,84,61,30.07,29.64,12,3,15,0.28
2013-3-6,34,31,29,31,29,27,96,92,87,30.33,29.71,6,1,9,0.06
2013-3-7,39,34,31,33,30,27,95,86,73,30.45,30.31,3,0,5,0.33
2013-3-8,43,34,24,30,26,22,95,73,49,30.54,30.44,6,1,11,0.02
2013-3-9,57,44,28,36,31,25,92,64,42,30.45,30.08,10,2,15,0.00
2013-3-10,68,60,54,46,36,34,71,41,29,30.07,29.85,11,2,18,0.05
2013-3-11,56,49,39,53,45,33,96,86,65,29.90,29.64,13,3,28,1.15
2013-3-12,46,39,34,33,30,26,90,71,51,30.12,29.90,11,3,20,0.01
2013-3-13,34,30,26,32,26,20,93,82,68,30.39,30.07,8,2,17,0.08
2013-3-14,44,33,21,27,22,18,93,67,35,30.44,30.24,10,1,13,0.00
2013-3-15,53,42,30,40,34,28,93,76,57,30.24,29.83,6,1,11,0.00
2013-3-16,61,48,38,53,43,34,96,84,66,30.07,29.66,9,2,19,0.30
2013-3-17,38,36,34,34,31,30,90,82,77,30.20,30.05,12,3,16,0.08
2013-3-18,51,41,34,49,39,32,97,92,79,30.05,29.67,11,3,21,0.89
2013-3-19,44,38,29,35,24,16,87,59,33,30.17,29.89,16,4,28,0.01
2013-3-20,38,33,25,23,18,13,72,56,42,30.16,30.02,11,2,20,0.00
2013-3-21,33,27,21,16,14,10,75,57,42,30.11,30.01,5,1,10,0.00
2013-3-22,45,32,18,24,18,15,89,60,32,30.16,30.05,7,1,9,0.00
2013-3-23,51,40,28,29,25,18,83,58,33,30.12,29.94,7,1,11,0.00
2013-3-24,40,35,32,33,30,25,96,80,54,29.94,29.46,12,2,18,0.09
2013-3-25,36,33,30,33,31,28,97,93,89,30.02,29.48,7,1,10,0.30
2013-3-26,42,36,32,35,30,26,94,81,64,30.30,30.02,10,1,14,0.03
2013-3-27,44,37,29,33,28,26,88,69,50,30.38,30.30,4,1,13,0.01
2013-3-28,50,38,24,31,26,21,91,64,41,30.43,30.34,7,1,11,0.00
2013-3-29,56,42,26,36,29,24,93,65,36,30.39,30.25,4,1,10,0.00
2013-3-30,60,47,30,38,33,28,93,61,36,30.29,29.99,8,1,14,0.00
2013-3-31,58,51,45,48,43,35,97,77,54,29.98,29.82,9,2,19,0.11
2013-4-1,50,43,35,42,29,20,80,58,36,30.18,29.83,9,1,20,0.00
2013-4-2,48,37,24,26,20,15,86,54,27,30.33,30.18,6,1,14,0.00
2013-4-3,48,37,23,26,19,15,86,51,28,30.48,30.32,14,1,16,0.00
2013-4-4,57,43,34,25,20,15,58,41,20,30.39,30.04,10,2,14,0.00
2013-4-5,62,45,29,39,29,24,86,57,29,30.18,30.03,4,1,9,0.00
2013-4-6,67,49,36,38,30,24,72,50,30,30.25,30.00,11,3,17,0.00
2013-4-7,74,64,57,55,46,38,91,52,40,30.02,29.89,10,2,19,0.15
2013-4-8,73,63,53,57,54,50,95,74,56,30.03,29.90,8,2,15,0.15
2013-4-9,80,69,55,62,57,52,90,66,47,30.06,29.93,14,2,21,0.00
2013-4-10,84,75,67,67,61,58,75,64,48,29.98,29.77,12,2,21,0.00
2013-4-11,68,63,59,63,60,57,96,89,74,29.82,29.55,16,2,23,1.01
2013-4-12,59,48,41,58,40,32,96,76,60,29.97,29.53,10,2,18,0.23
2013-4-13,59,48,38,40,36,33,86,65,39,30.08,29.96,13,2,22,0.00
2013-4-14,72,56,37,50,41,34,91,61,36,30.10,29.89,9,2,16,0.00
2013-4-15,69,63,57,56,52,45,78,67,51,30.01,29.92,12,2,16,0.00
2013-4-16,80,65,57,70,59,53,97,81,61,30.21,29.96,10,2,16,0.57
2013-4-17,78,64,55,66,60,54,97,88,66,30.21,29.97,9,2,15,0.07
2013-4-18,82,74,64,66,60,54,83,64,44,29.97,29.60,15,4,19,0.00
2013-4-19,75,49,39,61,41,32,93,74,50,30.03,29.46,22,4,24,0.67
2013-4-20,52,43,37,35,32,28,88,65,39,30.45,30.03,8,2,16,0.00
2013-4-21,57,43,32,36,30,26,82,61,39,30.58,30.42,8,2,14,0.00
2013-4-22,70,52,33,47,36,30,94,60,34,30.42,30.17,7,1,11,0.00
2013-4-23,71,59,43,55,48,41,93,70,53,30.17,29.88,8,1,13,0.00
2013-4-24,65,51,37,56,45,35,95,80,59,30.26,29.80,7,1,13,0.70
2013-4-25,60,46,32,41,36,30,97,70,37,30.43,30.27,12,2,21,0.00
2013-4-26,63,49,31,43,34,30,96,63,29,30.52,30.37,6,1,11,0.00
2013-4-27,64,53,39,52,44,37,95,73,44,30.39,30.09,10,3,16,0.00
2013-4-28,67,60,55,63,56,52,95,87,74,30.08,29.85,11,2,17,0.16
2013-4-29,65,59,54,58,55,52,97,88,70,30.03,29.91,4,0,7,0.01
2013-4-30,78,63,46,61,53,45,98,73,39,30.08,29.99,9,1,12,0.00
2013-5-1,83,69,51,63,56,50,97,67,41,30.18,30.07,8,1,13,0.00
2013-5-2,75,69,62,58,54,51,77,61,52,30.22,30.10,10,3,16,0.00
2013-5-3,76,68,59,61,54,40,85,63,36,30.10,29.95,16,6,24,0.00
2013-5-4,72,64,56,55,47,40,90,56,38,30.02,29.93,15,5,22,0.03
2013-5-5,57,55,51,53,51,48,95,87,71,30.02,29.95,8,2,18,0.78
2013-5-7,74,62,56,61,57,55,97,85,56,30.00,29.92,7,0,13,0.12
2013-5-8,78,64,52,63,57,51,99,81,48,30.02,29.95,6,0,10,0.02
2013-5-9,81,67,54,66,57,53,98,75,39,30.04,29.94,6,1,12,0.00
2013-5-10,70,64,61,64,62,58,97,91,71,29.98,29.82,6,1,12,1.34
2013-5-11,62,54,46,60,50,42,96,86,70,30.04,29.87,7,1,10,0.00
2013-5-12,57,47,38,42,37,32,96,73,40,30.16,30.05,8,1,17,0.00
2013-5-13,64,52,36,43,38,32,96,63,32,30.23,30.12,12,1,14,0.00
2013-5-14,82,70,46,60,54,38,77,57,42,30.14,29.85,11,2,18,0.00
2013-5-15,87,77,68,64,59,56,73,55,38,29.91,29.82,10,3,19,0.00
2013-5-16,75,67,58,69,62,57,98,84,65,30.02,29.87,7,1,9,0.03
2013-5-17,81,71,59,68,64,58,98,82,57,30.06,30.01,9,1,14,0.14
2013-5-18,78,71,64,70,66,63,98,86,66,30.07,29.98,7,1,14,0.02
2013-5-19,85,72,61,72,66,60,99,82,55,30.02,29.90,6,1,9,0.00
2013-5-20,85,76,67,73,69,66,97,80,58,30.01,29.88,7,1,13,0.00
2013-5-21,84,76,66,69,66,62,90,73,52,29.98,29.80,11,2,17,0.00
2013-5-22,79,70,64,69,64,62,96,83,63,29.85,29.75,7,1,13,0.35
2013-5-23,69,63,54,64,59,49,97,87,66,30.12,29.81,7,1,13,0.13
2013-5-24,67,56,48,49,46,39,91,69,42,30.36,30.11,8,1,8,0.00
2013-5-25,65,54,41,54,46,40,98,76,49,30.43,30.25,5,0,10,0.00
2013-5-26,70,61,53,54,51,47,95,71,45,30.34,30.19,6,1,9,0.00
2013-5-27,83,70,55,66,56,47,90,63,40,30.21,29.96,10,3,17,0.12
2013-5-28,83,76,68,68,63,60,81,65,52,30.03,29.93,12,2,18,0.00
2013-5-29,86,78,69,68,63,59,76,61,40,30.09,29.99,11,2,15,0.01
2013-5-30,87,80,71,71,67,63,78,66,55,30.14,30.00,7,1,16,0.00
2013-5-31,83,74,69,72,67,64,94,80,65,30.06,29.94,9,1,15,0.42
2013-6-1,80,74,69,70,68,64,91,82,67,29.97,29.79,9,2,16,0.00
2013-6-2,78,71,65,67,63,59,90,76,55,29.95,29.83,7,2,12,0.00
2013-6-3,72,63,55,59,54,50,91,74,55,30.08,29.95,6,0,10,0.00
2013-6-4,76,63,48,55,49,42,98,65,32,30.18,30.08,11,1,15,0.01
2013-6-5,82,68,54,66,58,49,92,71,49,30.11,29.87,5,1,9,0.00
2013-6-6,74,66,62,68,64,60,97,92,80,29.89,29.79,3,0,5,0.77
2013-6-7,76,67,60,65,60,58,97,82,59,29.90,29.82,4,0,7,0.00
2013-6-8,76,67,58,66,60,56,93,80,64,30.05,29.90,5,1,10,0.00
2013-6-9,82,71,62,69,64,60,97,82,55,30.08,29.90,8,2,16,0.03
2013-6-10,79,70,64,69,65,62,97,86,61,29.92,29.81,10,2,14,0.48
2013-6-11,86,74,62,71,65,61,98,78,49,29.99,29.88,9,1,15,0.00
2013-6-12,92,80,70,80,72,66,93,77,58,29.93,29.73,5,1,13,0.00
2013-6-13,82,75,65,74,66,56,97,73,53,29.94,29.61,8,2,17,0.72
2013-6-14,81,69,56,67,59,54,96,73,50,30.07,29.93,5,0,8,0.00
2013-6-15,83,71,56,68,62,55,97,75,51,30.14,29.96,8,1,11,0.00
2013-6-16,76,72,68,70,67,63,95,84,73,30.03,29.96,6,1,10,0.03
2013-6-17,88,75,66,74,69,66,98,83,52,30.00,29.88,6,0,11,0.00
2013-6-18,85,71,66,71,67,64,95,86,55,30.00,29.86,4,0,8,0.10
2013-6-19,82,70,59,63,59,55,93,69,44,30.13,29.99,4,1,9,0.00
2013-6-20,87,72,56,66,60,55,97,71,42,30.21,30.13,6,0,9,0.00
2013-6-21,88,74,59,70,64,58,98,75,47,30.22,30.11,8,1,14,0.00
2013-6-22,89,76,67,76,69,65,95,80,58,30.18,30.07,7,1,13,0.00
2013-6-23,89,76,65,74,68,64,98,80,49,30.15,30.07,9,1,16,0.00
2013-6-24,86,76,65,74,69,64,97,81,63,30.15,30.03,8,1,11,0.00
2013-6-25,91,80,67,77,72,66,97,77,56,30.07,29.89,9,1,13,0.00
2013-6-26,85,73,67,76,70,66,97,88,70,29.95,29.78,8,1,13,1.00
2013-6-27,87,75,67,75,70,66,98,87,64,29.81,29.70,5,1,11,0.03
2013-6-28,86,75,65,71,67,61,95,78,46,29.71,29.59,7,1,17,0.14
2013-6-29,77,69,62,70,66,61,98,90,69,29.67,29.59,4,0,9,0.63
2013-6-30,80,71,65,68,66,64,98,85,58,29.84,29.66,3,0,9,0.00
2013-7-1,78,68,64,71,66,61,97,91,77,29.94,29.83,5,0,8,0.45
2013-7-2,82,72,65,71,67,65,98,86,61,30.03,29.92,6,1,11,0.02
2013-7-3,82,74,66,71,68,64,98,83,65,30.12,30.02,5,1,10,0.00
2013-7-4,74,70,68,70,68,67,98,95,85,30.17,30.08,5,1,9,0.98
2013-7-5,76,71,66,73,69,65,98,93,82,30.16,30.09,4,0,12,0.09
2013-7-6,74,70,68,72,69,66,98,95,90,30.14,30.06,4,1,10,0.62
2013-7-7,83,72,64,72,68,64,98,87,63,30.14,30.04,5,0,9,0.00
2013-7-8,86,76,66,76,70,65,97,84,64,30.14,30.04,6,1,11,0.00
2013-7-9,89,81,75,79,74,71,88,80,61,30.08,29.98,8,1,11,0.00
2013-7-10,90,80,71,80,74,70,95,84,71,30.00,29.83,9,1,15,0.14
2013-7-11,83,74,64,71,66,59,98,79,58,30.03,29.93,4,1,8,0.00
2013-7-12,81,68,58,64,60,57,98,79,49,30.12,30.03,4,0,9,0.00
2013-7-13,84,74,65,70,65,62,90,75,56,30.12,30.07,11,2,16,0.00
2013-7-14,90,79,67,77,71,65,96,77,58,30.22,30.13,10,2,19,0.00
2013-7-15,92,81,71,76,72,69,96,77,49,30.30,30.22,5,1,7,0.00
2013-7-16,93,82,69,77,73,68,97,76,52,30.34,30.25,3,0,9,0.00
2013-7-17,93,83,72,79,75,71,97,79,59,30.33,30.18,3,0,6,0.00
2013-7-18,95,83,72,78,73,70,98,75,48,30.20,30.02,4,0,8,0.00
2013-7-19,91,80,74,80,75,69,97,85,65,30.05,29.88,5,1,19,0.96
2013-7-20,89,80,74,77,73,69,91,80,64,29.93,29.84,10,2,16,0.12
2013-7-21,87,77,68,76,71,68,98,84,60,29.98,29.87,5,0,10,0.00
2013-7-22,80,74,69,75,71,68,97,92,79,29.91,29.76,7,0,10,0.26
2013-7-23,88,76,68,78,72,67,98,87,65,29.84,29.73,9,1,12,0.18
2013-7-24,79,68,58,66,61,56,94,79,61,30.01,29.84,4,1,8,0.00
2013-7-25,79,67,56,63,58,55,96,75,48,30.10,30.02,5,0,9,0.00
2013-7-26,81,69,55,66,60,54,98,77,50,30.11,29.98,5,1,9,0.00
2013-7-27,78,68,64,68,63,57,96,85,54,29.99,29.85,7,1,15,0.20
2013-7-28,74,64,54,58,54,51,95,72,48,30.08,29.93,8,1,12,0.00
2013-7-29,80,66,54,63,57,52,96,75,48,30.20,30.08,7,1,16,0.00
2013-7-30,80,68,54,69,61,53,97,80,50,30.25,30.12,5,0,8,0.00
2013-7-31,77,71,65,70,66,63,96,86,76,30.13,29.96,6,1,8,0.02
2013-8-1,84,72,63,69,65,56,97,80,46,30.01,29.93,3,0,12,0.09
2013-8-2,84,71,57,68,62,55,97,77,52,30.03,29.96,6,1,12,0.00
2013-8-3,82,72,66,73,67,63,96,84,62,30.05,29.96,3,0,6,0.07
2013-8-4,79,69,58,64,59,55,94,72,47,30.15,30.05,7,1,12,0.00
2013-8-5,81,67,54,64,58,53,97,76,47,30.14,29.98,5,0,9,0.00
2013-8-6,82,74,66,71,65,58,92,73,65,29.99,29.92,6,1,10,0.00
2013-8-7,84,76,68,76,72,67,97,87,71,29.95,29.87,5,1,9,0.00
2013-8-8,85,76,70,77,72,68,96,90,72,29.96,29.89,7,1,11,1.40
2013-8-9,83,74,69,76,71,68,97,91,72,30.03,29.91,4,0,6,0.06
2013-8-10,85,75,69,74,70,68,97,86,58,30.12,30.03,3,0,8,0.00
2013-8-11,88,76,68,74,69,65,97,81,55,30.10,30.03,5,0,8,0.00
2013-8-12,84,74,64,74,69,62,97,84,63,30.09,29.88,6,1,8,0.00
2013-8-13,79,72,60,73,65,53,96,79,57,30.07,29.86,5,0,9,0.00
2013-8-14,72,61,52,55,52,50,95,74,50,30.19,30.07,5,1,9,0.00
2013-8-15,74,62,49,59,54,48,97,77,49,30.20,30.10,6,1,13,0.00
2013-8-16,78,66,53,62,57,52,96,74,46,30.18,30.12,10,1,12,0.00
2013-8-17,82,69,56,65,59,55,96,75,48,30.20,30.12,5,1,12,0.00
2013-8-18,84,70,58,68,61,56,97,75,42,30.20,30.09,4,0,9,0.00
2013-8-19,85,71,58,70,62,57,97,77,44,30.16,30.07,4,0,7,0.00
2013-8-20,86,73,60,72,64,59,97,76,47,30.18,30.09,8,1,14,0.00
2013-8-21,85,74,66,75,69,64,95,84,62,30.17,30.06,4,0,13,0.25
2013-8-22,87,76,67,76,70,66,96,84,57,30.12,30.03,5,0,11,0.05
2013-8-23,85,73,66,72,68,64,97,86,59,30.15,30.05,3,0,6,0.49
2013-8-24,86,73,59,71,63,58,96,74,46,30.27,30.16,5,1,10,0.00
2013-8-25,88,72,58,69,61,57,97,72,39,30.35,30.23,5,1,7,0.00
2013-8-26,88,74,60,76,67,58,96,80,51,30.27,30.08,5,1,11,0.00
2013-8-27,89,78,68,77,73,67,96,84,66,30.09,29.96,5,1,8,0.00
2013-8-28,94,81,74,78,74,71,95,80,50,29.98,29.87,7,2,17,0.03
2013-8-29,86,78,70,75,72,68,96,82,61,30.04,29.95,4,0,8,0.00
2013-8-30,89,77,65,74,69,64,96,79,50,30.00,29.84,7,1,9,0.00
2013-8-31,91,79,72,79,73,69,96,83,63,29.86,29.73,8,1,13,0.54
2013-9-1,85,75,68,74,70,66,96,87,68,29.84,29.77,6,1,9,0.01
2013-9-2,88,76,70,75,70,62,96,81,55,29.90,29.79,7,1,11,0.00
2013-9-3,75,66,58,62,59,56,94,77,58,30.08,29.90,6,0,8,0.00
2013-9-4,82,67,53,65,59,52,96,79,52,30.17,30.08,5,0,9,0.00
2013-9-5,86,71,57,67,62,56,96,76,48,30.20,30.14,3,0,7,0.00
2013-9-6,82,68,56,59,55,50,90,66,40,30.25,30.12,6,1,9,0.00
2013-9-7,85,70,55,71,62,53,96,79,54,30.12,29.97,5,1,11,0.00
2013-9-8,89,76,65,72,68,64,96,78,49,30.00,29.93,4,1,8,0.00
2013-9-9,89,79,66,74,70,64,96,75,53,30.04,29.96,7,1,12,0.00
2013-9-10,91,82,74,78,73,69,89,76,61,30.14,30.02,7,1,11,0.00
2013-9-11,89,79,71,76,72,68,94,80,62,30.16,30.02,6,1,11,0.00
2013-9-12,80,74,67,72,70,65,95,87,68,30.02,29.88,6,1,9,0.12
2013-9-13,66,60,50,64,52,47,93,76,56,30.11,29.92,8,1,10,0.00
2013-9-14,71,56,44,50,45,42,96,72,38,30.22,30.11,6,1,9,0.00
2013-9-15,77,62,44,60,52,43,96,74,46,30.16,30.05,11,1,15,0.00
2013-9-16,71,64,57,61,58,53,95,82,61,30.30,30.09,4,1,8,0.02
2013-9-17,74,64,50,58,54,49,95,72,48,30.35,30.18,7,2,14,0.00
2013-9-18,78,66,57,67,60,53,95,82,66,30.18,30.07,6,1,9,0.01
2013-9-19,78,70,65,70,67,64,96,89,73,30.11,29.98,9,1,13,0.24
2013-9-20,84,73,67,73,68,66,96,87,64,30.01,29.81,9,1,15,0.79
2013-9-21,72,65,55,67,59,51,96,84,52,29.90,29.72,4,0,8,0.52
2013-9-22,66,57,46,53,49,45,96,77,50,30.04,29.90,3,0,9,0.00
2013-9-23,67,56,44,53,48,42,96,77,52,30.15,30.04,9,1,11,0.00
2013-9-24,73,60,46,60,53,44,96,79,61,30.12,29.94,7,1,12,0.00
2013-9-25,72,62,54,60,55,52,95,80,56,29.95,29.89,6,0,9,0.00
2013-9-26,76,60,46,62,54,45,97,81,57,30.07,29.95,8,1,13,0.00
2013-9-27,78,63,49,64,55,48,96,77,44,30.20,30.09,2,0,7,0.00
2013-9-28,79,64,48,63,56,47,96,78,47,30.21,30.08,3,0,13,0.00
2013-9-29,67,61,56,62,59,55,96,93,80,30.08,30.02,3,0,10,0.08
2013-9-30,73,65,61,65,62,60,96,90,74,30.06,29.97,6,0,11,0.05
2013-10-1,77,66,57,67,61,56,97,85,66,30.11,30.03,7,1,12,0.00
2013-10-2,77,67,58,70,64,57,97,92,79,30.14,30.06,5,0,8,0.00
2013-10-3,78,72,67,72,68,66,96,89,70,30.10,30.01,4,0,7,0.32
2013-10-4,82,73,65,73,68,64,96,84,66,30.10,30.02,6,1,9,0.00
2013-10-5,80,72,67,73,68,66,96,90,77,30.07,29.96,5,1,11,0.32
2013-10-6,72,64,54,69,62,52,97,95,85,29.97,29.73,7,2,15,2.14
2013-10-7,60,53,46,53,47,44,95,81,61,30.20,29.87,7,1,13,0.00
2013-10-8,66,53,41,54,46,40,97,79,49,30.32,30.19,8,1,12,0.01
2013-10-9,71,56,42,57,48,41,96,78,46,30.28,30.18,6,0,10,0.00
2013-10-10,70,56,41,54,47,40,96,76,40,30.23,30.11,7,0,8,0.00
2013-10-11,75,59,45,56,51,44,96,76,44,30.15,30.04,4,0,8,0.00
2013-10-12,76,62,48,63,55,47,96,81,48,30.14,30.06,5,0,7,0.00
2013-10-13,73,61,52,63,55,47,96,82,50,30.32,30.14,3,0,5,0.00
2013-10-14,69,57,44,54,48,42,95,75,45,30.36,30.20,4,1,10,0.00
2013-10-15,74,62,49,65,58,48,96,89,73,30.22,29.97,7,1,11,0.07
2013-10-16,68,62,48,62,57,46,95,84,54,29.99,29.91,5,1,11,0.04
2013-10-17,55,48,41,50,45,40,96,91,78,30.03,29.92,8,1,12,0.11
2013-10-18,64,52,42,52,45,41,96,80,52,30.09,29.98,11,1,13,0.00
2013-10-19,51,46,39,48,43,38,95,88,75,30.05,29.87,8,0,10,0.17
2013-10-20,60,50,39,46,41,36,93,74,53,30.08,30.03,8,1,15,0.00
2013-10-21,65,54,42,50,44,38,90,70,49,30.05,29.93,13,1,16,0.00
2013-10-22,52,44,32,47,35,30,94,71,47,30.09,29.89,8,1,8,0.07
2013-10-23,46,42,37,41,37,32,95,82,59,30.10,29.77,6,1,12,0.14
2013-10-24,44,39,36,37,35,32,95,84,61,30.33,30.10,10,1,14,0.05
2013-10-25,47,37,28,36,30,27,95,78,46,30.51,30.33,6,1,9,0.00
2013-10-26,53,42,31,41,33,28,90,72,57,30.35,29.99,8,1,19,0.00
2013-10-27,56,44,32,42,36,30,96,76,48,30.16,30.08,5,0,9,0.00
2013-10-28,61,44,29,46,35,28,96,75,39,30.34,30.14,5,0,8,0.00
2013-10-29,56,45,32,48,41,31,96,85,67,30.41,30.25,2,0,4,0.01
2013-10-30,65,57,50,63,56,48,96,95,92,30.25,30.03,5,1,8,0.18
2013-10-31,65,63,60,64,60,57,95,88,79,30.03,29.38,8,2,13,0.84
2013-11-1,63,57,49,55,48,44,93,75,51,29.78,29.45,7,2,17,0.01
2013-11-2,56,50,43,45,41,36,86,71,52,30.14,29.78,7,1,12,0.00
2013-11-3,53,45,38,43,38,35,96,79,57,30.41,30.14,4,1,10,0.00
2013-11-4,58,49,38,46,40,34,90,72,59,30.45,30.33,7,2,14,0.00
2013-11-5,61,54,50,47,44,39,88,70,54,30.44,30.24,8,1,10,0.00
2013-11-6,65,58,45,59,50,39,95,77,54,30.24,30.00,6,1,13,0.36
2013-11-7,48,43,35,43,34,28,94,73,47,30.31,30.08,7,1,11,0.04
2013-11-8,50,40,30,36,31,27,94,73,45,30.44,30.26,5,1,11,0.00
2013-11-9,61,50,37,40,35,28,79,56,42,30.29,30.07,13,2,22,0.00
2013-11-10,52,45,31,42,33,28,91,66,45,30.39,30.15,6,1,13,0.00
2013-11-11,58,43,28,45,34,27,95,75,35,30.36,30.14,9,1,15,0.11
2013-11-12,36,30,25,34,25,21,94,79,61,30.69,30.32,5,1,13,0.06
2013-11-13,39,30,19,26,20,17,94,71,42,30.72,30.47,7,1,12,0.00
2013-11-14,53,42,31,27,23,20,69,49,28,30.47,30.20,12,1,12,0.00
2013-11-15,53,47,40,44,31,22,85,55,40,30.22,30.14,8,1,10,0.00
2013-11-16,62,54,47,56,50,43,94,87,83,30.18,29.93,7,2,14,0.00
2013-11-17,65,61,60,62,58,56,95,91,83,29.94,29.53,11,3,25,0.85
2013-11-18,52,47,37,42,36,29,81,66,50,30.24,29.83,6,2,22,0.00
2013-11-19,41,35,28,31,29,26,94,78,62,30.41,30.24,4,1,11,0.00
2013-11-20,50,39,27,35,30,25,91,72,53,30.39,30.27,7,2,12,0.00
2013-11-21,56,49,42,48,41,33,95,73,59,30.36,30.23,4,1,11,0.06
2013-11-22,54,48,38,52,46,32,96,90,75,30.42,30.20,3,1,10,0.13
2013-11-23,39,32,24,32,24,14,94,74,48,30.64,30.41,3,1,11,0.00
2013-11-24,27,22,15,18,14,10,86,70,57,30.77,30.64,3,1,8,0.00
2013-11-25,39,30,16,30,19,13,90,64,45,30.61,30.27,6,1,13,0.00
2013-11-26,36,34,32,32,30,28,95,88,80,30.28,29.98,2,0,7,0.03
2013-11-27,34,28,23,30,22,14,88,76,67,30.36,29.98,6,1,13,0.00
2013-11-28,34,26,18,19,17,13,85,68,51,30.52,30.36,9,1,12,0.00
2013-11-29,40,28,16,24,20,14,91,73,51,30.70,30.52,3,1,8,0.01
2013-11-30,50,36,23,32,27,20,93,71,48,30.58,30.23,4,1,9,0.00
2013-12-1,53,46,37,39,34,28,75,65,57,30.23,30.00,7,1,12,0.00
2013-12-2,51,44,35,41,38,33,93,80,66,30.00,29.82,4,0,6,0.00
2013-12-3,53,44,31,47,41,30,96,90,78,29.93,29.83,6,1,10,0.00
2013-12-4,63,55,46,58,52,44,95,90,82,29.90,29.74,9,2,14,0.00
2013-12-5,65,49,32,61,45,29,95,87,79,30.21,29.78,5,1,10,0.38
2013-12-6,32,29,27,30,27,25,95,93,89,30.46,30.18,2,0,5,0.07
2013-12-7,27,23,17,25,19,14,94,86,77,30.68,30.45,3,0,5,0.17
2013-12-8,32,25,19,31,23,15,96,89,82,30.60,30.08,7,1,10,0.00
2013-12-9,33,30,24,32,27,19,96,88,79,30.30,30.07,10,2,14,0.00
2013-12-10,29,24,20,20,18,14,93,78,62,30.43,30.23,13,2,20,0.00
2013-12-11,35,22,9,25,16,7,91,78,62,30.59,30.36,8,1,17,0.01
2013-12-12,24,17,6,12,8,3,87,68,44,30.65,30.43,6,1,13,0.00
2013-12-13,38,29,19,31,19,11,92,69,55,30.43,30.22,6,1,12,0.01
2013-12-14,37,35,32,36,34,30,96,95,92,30.22,29.76,7,2,14,0.70
2013-12-15,32,29,28,30,24,22,93,83,70,30.19,29.94,11,2,17,0.00
2013-12-16,34,30,28,32,28,24,96,93,84,30.19,30.06,5,0,7,0.03
2013-12-17,37,31,29,34,28,25,93,86,78,30.23,30.04,7,1,12,0.01
2013-12-18,37,31,24,26,21,18,89,69,50,30.35,30.11,9,2,13,0.00
2013-12-19,54,47,37,44,33,23,72,60,53,30.14,30.00,5,1,13,0.04
2013-12-20,60,56,52,58,48,40,90,77,57,30.00,29.85,10,2,13,0.01
2013-12-21,68,61,59,64,59,57,96,93,87,29.85,29.47,11,2,24,1.89
2013-12-22,62,52,39,61,48,36,95,87,77,30.08,29.55,15,2,24,0.34
2013-12-23,39,32,25,36,26,20,93,80,70,30.46,30.08,9,1,13,0.02
2013-12-24,26,19,14,22,13,9,91,77,65,30.63,30.43,5,1,10,0.00
2013-12-25,34,27,16,25,18,13,90,69,55,30.57,30.27,8,2,14,0.00
2013-12-26,39,34,30,28,25,22,80,69,50,30.43,30.26,12,2,19,0.00
2013-12-27,48,38,29,33,28,24,82,68,55,30.47,30.34,6,1,12,0.00
2013-12-28,52,43,35,35,31,28,78,63,50,30.33,30.06,5,1,9,0.00
2013-12-29,44,40,32,41,35,28,95,86,56,30.09,29.85,8,1,14,0.30
2013-12-30,32,27,22,30,21,17,91,77,67,30.31,30.09,6,1,10,0.00
2013-12-31,34,28,23,22,19,16,81,68,55,30.45,30.25,8,2,16,0.00
2014-1-1,45,34,23,32,26,20,90,73,53,30.35,30.06,6,0,9,0.00
2014-1-2,35,24,10,31,21,6,95,88,76,30.36,29.88,3,0,10,0.00